Regional Weather Roundup
Issued by NWS

Home | Current Version | Previous Version | Text Only | Print | Product List | Glossary Off
Versions: 1 2 3 4 5 6 7 8 9 10 11 12 13 14 15 16 17 18 19 20 21 22 23 24 25 26 27 28 29 30 31 32 33 34 35 36 37 38 39 40 41 42 43 44 45 46 47 48 49 50

000
ASUS43 KBIS 221710
RWRND

NORTH DAKOTA REGIONAL WEATHER ROUNDUP
NATIONAL WEATHER SERVICE BISMARCK ND
1100 AM CST WED FEB 22 2017

NOTE: "FAIR" INDICATES FEW OR NO CLOUDS BELOW 12,000 FEET WITH NO
SIGNIFICANT WEATHER AND/OR OBSTRUCTIONS TO VISIBILITY.


NDZ001>003-009>011-017-221800-
NORTHWEST NORTH DAKOTA

CITY           SKY/WX    TMP DP  RH WIND       PRES   REMARKS
WILLISTON      CLOUDY    31  26  82 N12       29.89R
MINOT          CLOUDY    33  29  85 N17       29.83R
MINOT AFB      CLOUDY    31  28  86 N14       29.83R
$$

NDZ018>021-031>035-040>046-221800-
SOUTHWEST NORTH DAKOTA

CITY           SKY/WX    TMP DP  RH WIND       PRES   REMARKS
BISMARCK       LGT SNOW  34  33  96 N9        29.77R FOG
DICKINSON      SNOW      29  26  89 N14       29.79R VSB 1/2 WCI  18
GARRISON         N/A     31  29  92 N14G21    29.80R
HETTINGER ARPT CLOUDY    32  30  92 N13       29.78R
$$

NDZ004>008-012>016-024-026-027-054-221800-
NORTHEAST NORTH DAKOTA

CITY           SKY/WX    TMP DP  RH WIND       PRES   REMARKS
GRAND FORKS    DRIZZLE   34  28  79 N20       29.76R
GRND FRKS AFB  CLOUDY    33  32  99 NE16      29.77R
DEVILS LAKE    CLOUDY    31  28  89 NE20      29.80R WCI  19
$$

NDZ022-023-025-028>030-036>039-047>053-221800-
SOUTHEAST NORTH DAKOTA

CITY           SKY/WX    TMP DP  RH WIND       PRES   REMARKS
FARGO          LGT RAIN  34  33  96 N15       29.67F VSB 3/4
JAMESTOWN      LGT SNOW  33  32  96 N8        29.72R VSB 1
$$




USA.gov is the U.S. government's official web portal to all federal, state and local government web resources and services.